This is the latest recevied weather packets stored in our database for station/object KB4KY. If no packets are shown the sender has not sent any weather packets the latest 10 day(s).
| Time | Temp. | Humidity | Pressure | Rain* | Wind** | Luminosity | Snow |
|---|---|---|---|---|---|---|---|
| 1777819943 | 14.44° C | 54% | 1021.6 hPa | 0 mm | - | - | - |
| 1777819770 | 14.44° C | 48% | 1021.4 hPa | 0 mm | - | - | - |
| 1777819470 | 14.44° C | 54% | 1021.5 hPa | 0 mm | - | - | - |
| 1777819387 | 14.44° C | 53% | 1021.6 hPa | 0 mm | - | - | - |
| 1777819169 | 14.44° C | 54% | 1021.6 hPa | 0 mm | - | - | - |
| 1777818871 | 14.44° C | 53% | 1021.6 hPa | 0 mm | - | - | - |
| 1777818569 | 13.89° C | 58% | 1021.6 hPa | 0 mm | - | - | - |
| 1777818367 | 13.33° C | 60% | 1021.6 hPa | 0 mm | - | - | - |
| 1777818270 | 13.33° C | 60% | 1021.6 hPa | 0 mm | - | - | - |
| 1777817968 | 13.33° C | 54% | 1021.7 hPa | 0 mm | - | - | - |
| 1777817672 | 13.33° C | 60% | 1021.7 hPa | 0 mm | - | - | - |
| 1777817477 | 13.33° C | 57% | 1021.8 hPa | 0 mm | - | - | - |
| 1777817476 | 13.33° C | 58% | 1021.9 hPa | 0 mm | - | - | - |
| 1777817368 | 13.33° C | 57% | 1021.8 hPa | 0 mm | - | - | - |
| 1777817253 | 13.33° C | 58% | 1021.9 hPa | 0 mm | - | - | - |
| 1777817069 | 13.33° C | 58% | 1021.9 hPa | 0 mm | - | - | - |
| 1777816999 | 13.33° C | 54% | 1021.9 hPa | 0 mm | - | - | - |
| 1777816767 | 13.33° C | 54% | 1021.9 hPa | 0 mm | - | - | - |
| 1777816467 | 12.78° C | 62% | 1022 hPa | 0 mm | - | - | - |
| 1777816168 | 12.22° C | 64% | 1022 hPa | 0 mm | - | - | - |
| 1777815868 | 11.67° C | 57% | 1022 hPa | 0 mm | - | - | - |
| 1777815567 | 12.22° C | 64% | 1022.1 hPa | 0 mm | - | - | - |
| 1777815267 | 12.22° C | 63% | 1022.1 hPa | 0 mm | - | - | - |
| 1777814965 | 12.22° C | 64% | 1022.1 hPa | 0 mm | - | - | - |
| 1777814885 | 11.67° C | 69% | 1022.1 hPa | 0 mm | - | - | - |
* Rain latest hour (hover to see other rain measurements)
** Current wind speed in m/s (hover to see current wind gust speed)